Regional Weather Roundup
Issued by NWS

Home | Current Version | Previous Version | Text Only | Print | Product List | Glossary On
Versions: 1 2 3 4 5 6 7 8 9 10 11 12 13 14 15 16 17 18 19 20 21 22 23 24 25 26 27 28 29 30 31 32 33 34 35 36 37 38 39 40 41 42 43 44 45 46 47 48 49 50
000
ASUS45 KPSR 170310
RWRAZ

ARIZONA REGIONAL HOURLY WEATHER ROUNDUP
NATIONAL WEATHER SERVICE PHOENIX AZ
800 PM MST WED APR 16 2014

NOTE: FAIR INDICATES FEW OR NO CLOUDS BELOW 12,000 FEET WITH NO
SIGNIFICANT WEATHER AND/OR OBSTRUCTIONS TO VISIBILITY.

AZZ001>003-036-170400-
NORTHWEST ARIZONA

CITY           SKY/WX    TMP DP  RH WIND       PRES   REMARKS
BULLHEAD CITY  CLEAR     86  21   9 N5        29.65R
KINGMAN        CLEAR     68  12  11 CALM      29.82R
$$

AZZ004>008-015-016-018-170400-
NORTH CENTRAL ARIZONA

CITY           SKY/WX    TMP DP  RH WIND       PRES   REMARKS
GRAND CANYON   CLEAR     53  19  26 N6        29.99R
WILLIAMS       CLEAR     54  10  17 NW7       30.06R
PRESCOTT       CLEAR     64  13  13 W8        29.90R
FLAGSTAFF      PTCLDY    53  12  19 NW3       30.01R
PAYSON         PTCLDY    61  14  16 SW3       29.93R
PAGE           CLEAR     63  28  26 NE6       29.90R
$$

AZZ009>014-017-170400-
NORTHEAST ARIZONA

CITY           SKY/WX    TMP DP  RH WIND       PRES   REMARKS
WINSLOW        MOCLDY    64  20  18 N5        29.90R
SAINT JOHNS    PTCLDY    58  10  15 N8        29.91R
WINDOW ROCK    MOCLDY    51  20  29 N6        29.98R
SHOW LOW       PTCLDY    54   9  16 SW7       29.98R
$$

AZZ023-170400-
GREATER PHOENIX AREA

CITY           SKY/WX    TMP DP  RH WIND       PRES   REMARKS
PHOENIX        PTCLDY    85  20   9 SW5       29.68R
BUCKEYE          N/A     77  28  16 SW7       29.69R
GLENDALE       PTCLDY    82  23  11 S6        29.69R
LUKE AFB       NOT AVBL
DEER VALLEY    CLEAR     81  18   9 S5        29.70R
SCOTTSDALE     CLEAR     82  22  11 CALM      29.72R
MESA-FALCON    PTCLDY    82  18   9 SW6       29.71R
MESA-GATEWAY   CLEAR     79  21  11 CALM      29.73R
CHANDLER       CLEAR     82  19   9 SW7       29.70R
$$

AZZ027-028-170400-
SOUTHWEST MARICOPA COUNTY AND PINAL COUNTY

CITY           SKY/WX    TMP DP  RH WIND       PRES   REMARKS
CASA GRANDE    CLEAR     79  10   7 CALM      29.73R
GILA BEND      CLEAR     81  19  10 SW3       29.71R
$$

AZZ503-504-507>509-170400-
SOUTHEAST ARIZONA

CITY           SKY/WX    TMP DP  RH WIND       PRES   REMARKS
TUCSON         CLEAR     79   7   6 W5        29.80R
DAVIS-MONTHAN  CLEAR     77   9   7 W7        29.79R
RYAN FIELD       N/A     75  12   9 W12       29.79R
NOGALES        CLEAR     68   7   9 SW7       29.88R
SIERRA VISTA   PTCLDY    70   0   6 SW14      29.92R
DOUGLAS        CLEAR     71  -3   5 W14       29.88R
SAFFORD        CLEAR     73   1   6 NW13      29.79R
$$

AZZ020-021-025-026-031-170400-
SOUTHWEST ARIZONA

CITY           SKY/WX    TMP DP  RH WIND       PRES   REMARKS
YUMA           CLEAR     83  30  14 SW9       29.68R
$$

CAZ031-033-041-043-047-048-061-170400-
SOUTHERN CALIFORNIA

CITY           SKY/WX    TMP DP  RH WIND       PRES   REMARKS
DOWNTOWN L.A.  CLEAR     61  53  75 CALM      29.82R
L.A. AIRPORT   PTCLDY    59  52  77 W6        29.83R
SAN DIEGO      MOCLDY    62  52  69 S6        29.85R
BURBANK        CLEAR     62  52  69 S7        29.81R
ONTARIO        CLEAR     66  50  56 W8        29.81R
RIVERSIDE      CLEAR     66  51  58 W7        29.81R
PALM SPRINGS   CLEAR     85  42  22 NW21      29.67R
IMPERIAL       CLEAR     85  34  16 S10       29.63R
BLYTHE         CLEAR     87  21   9 S13       29.65R
NEEDLES        CLEAR     86  13   6 CALM      29.65R
$$

NVZ020-UTZ003-170400-
SOUTHERN NEVADA-UTAH

CITY           SKY/WX    TMP DP  RH WIND       PRES   REMARKS
LAS VEGAS      PTCLDY    81  18   9 SE7       29.69R
SALT LAKE CITY PTCLDY    48  17  29 W7        30.00R
$$

NMZ009-TXZ055-170400-
NEW MEXICO-WEST TEXAS

CITY           SKY/WX    TMP DP  RH WIND       PRES   REMARKS
ALBUQUERQUE    CLOUDY    62  20  19 N18G29    29.91R
EL PASO        PTCLDY    77   1   5 NW13      29.77R
$$


........................KEY........................
SKY/WX - SKY CONDITION/WEATHER
TMP    - TEMPERATURE IN FAHRENHEIT
DP     - DEW POINT IN FAHRENHEIT
RH     - RELATIVE HUMIDITY IN PERCENT
WIND   - DIRECTION AND SPEED IN MILES PER HOUR (MPH)
VRB    - VARIABLE WIND DIRECTION
PRES   - MEAN SEA LEVEL PRESSURE IN INCHES OF MERCURY
         F - FALLING PRESSURE   R - RISING PRESSURE
         S - STEADY PRESSURE
VSB    - VISIBILITY IN MILES
HX     - HEAT INDEX IN FAHRENHEIT
WCI    - WIND CHILL INDEX IN FAHRENHEIT
TC     - TEMPERATURE IN CELSIUS WHICH IS ALSO KNOWN AS
         TEMPERATURE IN CENTIGRADE
AFB    - AIR FORCE BASE
         LUKE AFB IS LUKE AIR FORCE BASE
         DAVIS-MONTHAN IS DAVIS-MONTHAN AIR FORCE BASE
NAS    - NAVAL AIR STATION
         EL CENTRO NAS IS EL CENTRO NAVAL AIR STATION
N/A    - NOT AVAILABLE



USA.gov is the U.S. government's official web portal to all federal, state and local government web resources and services.